Weather Roundup
Issued by NWS Springfield, MO

Home | Current Version | Previous Version | Text Only | Print | Product List | Glossary On
Versions: 1 2 3 4 5 6 7 8 9 10 11 12 13 14 15 16 17 18 19 20 21 22 23 24 25 26 27 28 29 30 31 32 33 34 35 36 37 38 39 40 41 42 43 44 45 46 47 48 49 50
000
NZUS99 KSGF 230707
HRRSGF

HOURLY WEATHER
NATIONAL WEATHER SERVICE SPRINGFIELD MO
200 AM CDT FRI JUN 23 2017

......SGF CWA......

CITY           SKY/WX    TMP DP  RH WIND       PRES   REMARKS
SPRINGFIELD    PTCLDY    73  71  93 S6        29.75S
JOPLIN         PTCLDY    74  73  97 CALM      29.75R
WEST PLAINS    CLOUDY    75  72  90 CALM      29.75S
ROLLA          PTCLDY    71  70  96 S5        29.76R
OSAGE BEACH    CLOUDY    74  72  93 CALM      29.76R
BRANSON        CLOUDY    72  72 100 CALM      29.76S FOG

......SURROUNDING SGF CWA......

CITY           SKY/WX    TMP DP  RH WIND       PRES   REMARKS
CHANUTE        CLEAR     73  71  93 S3        29.73S
PARSONS        CLEAR     72  69  90 CALM      29.73F
COFFEYVILLE    CLEAR     72  72 100 CALM      29.72S
EMPORIA        PTCLDY    76  73  91 S12       29.72F
GROVE OK       PTCLDY    75  72  88 CALM      29.75R
ROGERS AR      CLEAR     70  69  97 CALM      29.77R
SILOAM SPRINGS CLEAR     72  66  83 CALM      29.76R
HARRISON AR    CLOUDY    72  72 100 NW3       29.75R
NEAR YELLVILLE CLOUDY    75  70  83 N3        29.69R

......KANSAS AND MISSOURI......

CITY           SKY/WX    TMP DP  RH WIND       PRES   REMARKS
KANSAS CTY INT PTCLDY    74  72  93 S8        29.71F
DOWNTOWN KC    CLEAR     79  74  84 SW3       29.69F
COLUMBIA       PTCLDY    74  73  97 S6        29.73S
SEDALIA        CLEAR     74  74 100 S7        29.74R
ST JOSEPH      CLOUDY    77  74  90 W3        29.71S
ST LOUIS       PTCLDY    79  74  84 S7        29.74S
SPIRIT OF STL  PTCLDY    74  74 100 CALM      29.72S
KIRKSVILLE     CLEAR     74  72  93 S7        29.69F
WICHITA        MOCLDY    75  68  78 SW5       29.73F
TOPEKA         MOCLDY    77  74  90 CALM      29.70F
OLATHE         CLEAR     73  73 100 S5        29.72F

......TENNESSEE......

CITY           SKY/WX    TMP DP  RH WIND       PRES   REMARKS
MEMPHIS        MOCLDY    78  75  90 S13       29.73F
NASHVILLE      CLOUDY    77  73  87 S7        29.87F

......ARKANSAS.......

CITY           SKY/WX    TMP DP  RH WIND       PRES   REMARKS
FAYETTEVILLE   CLEAR     69  69 100 CALM      29.76R
FT SMITH       CLEAR     75  73  93 CALM      29.70R
LITTLE ROCK    CLOUDY    75  75 100 E7        29.61F FOG

......OKLAHOMA.......

CITY           SKY/WX    TMP DP  RH WIND       PRES   REMARKS
TULSA          CLEAR     77  74  90 CALM      29.71R
PONCA CITY     CLOUDY    78  70  76 S3        29.73S
MCALESTER      PTCLDY    74  72  93 CALM      29.74R
OKLAHOMA CITY  PTCLDY    73  70  90 S6        29.74F

......IOWA............

CITY           SKY/WX    TMP DP  RH WIND       PRES   REMARKS
DES MOINES     CLOUDY    70  67  90 N12       29.74R
QUAD CITIES    CLEAR     77  71  82 S12       29.62F

......ILLINOIS........

CITY           SKY/WX    TMP DP  RH WIND       PRES   REMARKS
QUINCY         CLOUDY    76  72  87 S8        29.70F
CHICAGO        CLOUDY    76  70  82 SW9       29.66F




USA.gov is the U.S. government's official web portal to all federal, state and local government web resources and services.